This is the latest recevied weather packets stored in our database for station/object IU7URP-13. If no packets are shown the sender has not sent any weather packets the latest 10 day(s).
| Time | Temp. | Humidity | Pressure | Rain* | Wind** | Luminosity | Snow |
|---|---|---|---|---|---|---|---|
| 1777638956 | 16.11° C | 53% | 1020.4 hPa | - | - | - | - |
| 1777637755 | 16.11° C | 62% | 1020.7 hPa | - | - | - | - |
| 1777636553 | 16.67° C | 58% | 1020.9 hPa | - | - | - | - |
| 1777635352 | 16.67° C | 52% | 1021 hPa | - | - | - | - |
| 1777634150 | 16.11° C | 67% | 1021.2 hPa | - | - | - | - |
| 1777632949 | 16.11° C | 84% | 1021.1 hPa | - | - | - | - |
| 1777631748 | 15.56° C | 96% | 1021.1 hPa | - | - | - | - |
| 1777630547 | 15.56° C | 59% | 1021.1 hPa | - | - | - | - |
| 1777629345 | 15.56° C | 46% | 1021.2 hPa | - | - | - | - |
| 1777628144 | 15° C | 48% | 1021.2 hPa | - | - | - | - |
| 1777626942 | 15.56° C | 99% | 1021.1 hPa | - | - | - | - |
| 1777625741 | 15.56° C | 99% | 1021.1 hPa | - | - | - | - |
| 1777624540 | 15.56° C | 99% | 1021 hPa | - | - | - | - |
| 1777623338 | 15.56° C | 99% | 1020.9 hPa | - | - | - | - |
| 1777622137 | 15.56° C | 99% | 1020.7 hPa | - | - | - | - |
| 1777620935 | 16.11° C | 99% | 1020.6 hPa | - | - | - | - |
| 1777619734 | 15.56° C | 99% | 1020.5 hPa | - | - | - | - |
| 1777618533 | 15.56° C | 99% | 1020.5 hPa | - | - | - | - |
| 1777617332 | 16.11° C | 99% | 1020.3 hPa | - | - | - | - |
| 1777616130 | 15° C | 99% | 1020.5 hPa | - | - | - | - |
| 1777614929 | 15.56° C | 99% | 1020.6 hPa | - | - | - | - |
| 1777613727 | 15° C | 99% | 1020.5 hPa | - | - | - | - |
| 1777612526 | 14.44° C | 99% | 1020.3 hPa | - | - | - | - |
| 1777611325 | 14.44° C | 99% | 1020.3 hPa | - | - | - | - |
| 1777610123 | 12.78° C | 99% | 1020.2 hPa | - | - | - | - |
* Rain since midnight (hover to see other rain measurements)
** Current wind speed in m/s (hover to see current wind gust speed)